Location: Palo Alto
(37.4420°N, 122.1420°W)
Time: 23:05:10
(UTC-07:00)

ARGOS - Visible Passes

Search period start: 20 September 2014 00:00
Search period end: 30 September 2014 00:00
Orbit: 821 x 835 km, 98.8° (Epoch: 18 September)

Date Brightness Start Highest point End Pass type
(mag) Time Alt. Az. Time Alt. Az. Time Alt. Az.
20 Sep 5.4 21:23:14 12° NNE 21:23:14 12° NNE 21:23:49 10° NNE visible
20 Sep 5.7 23:04:46 15° NNW 23:04:46 15° NNW 23:05:39 10° NNW visible
21 Sep 5.6 22:46:15 16° NNW 22:46:15 16° NNW 22:47:18 10° NNW visible
22 Sep 5.5 22:27:43 16° N 22:27:43 16° N 22:28:48 10° N visible
23 Sep 5.5 22:09:12 15° N 22:09:12 15° N 22:10:10 10° N visible
24 Sep 5.5 21:50:40 13° NNE 21:50:40 13° NNE 21:51:22 10° N visible
25 Sep 5.6 21:32:09 11° NNE 21:32:09 11° NNE 21:32:21 10° NNE visible
25 Sep 6.1 23:13:41 10° NNW 23:13:41 10° NNW 23:13:45 10° NNW visible
26 Sep 5.9 22:55:10 12° NNW 22:55:10 12° NNW 22:55:26 10° NNW visible
27 Sep 5.8 22:36:38 12° N 22:36:38 12° N 22:37:00 10° N visible
28 Sep 5.8 22:18:07 12° N 22:18:07 12° N 22:18:26 10° N visible
29 Sep 5.7 21:59:35 11° N 21:59:35 11° N 21:59:43 10° N visible
